Погода в Тринити-Биче

Австралия     16°47′20″S   145°41′33″E
темп.,
°C
ветер,
м/с
пор.,
м/с
влажн.,
%
обл.,
%
осадки,
мм/ч
давл.,
гПа
погр.,
м
19 апреля, пн
пн1901:00+24ююв71188100 1.6 1010605
04:00+24ююв7118842 2.1 1010667
07:00+25ююв8118890 0.4 1012823
10:00+25юв8118553 1.1 1013778
13:00+25юв8118695 0.8 1011712
16:00+25юв7108660 1.5 1010673
19:00+25юв688897 1.9 1012542
22:00+25юв568777 4.8 1013462
20 апреля, вт
вт2001:00+25юв568792 5.4 1012424
04:00+25ююв5685100 7.6 1011401
07:00+25ююв578599 1.1 1013370
10:00+25юв568389 1.8 1014462
13:00+25юв5684100 1.9 1012386
16:00+25юв568468 5.1 1011454
19:00+25юв568764 2.1 1013389
22:00+25юв558898 3.8 1014368
21 апреля, ср
ср2101:00+24ююв4488100 2.0 1013334
04:00+24ююв4587100 2.6 1012290
07:00+25ююв458388 0.4 1013381
10:00+26юв458373 1.1 1014426
13:00+25юв3484100 1.9 1012318
16:00+25ю3386100 3.3 1011274
19:00+25ю338385 0.6 1012254
22:00+25ю3483100 0.6 1013217
22 апреля, чт
чт2201:00+25ююв4585100 0.1 1012276
04:00+24юв4488100 1.7 1011363
07:00+24юв4493100 5.3 1012338
10:00+24ююв338965 7.3 1013323
13:00+25вюв2286100 0.2 1010342
16:00+25юв448673 0.7 1008398
19:00+25ююв4587100 0.1 1010420
22:00+25ююв579037 1.0 1011486
23 апреля, пт
пт2301:00+25ю478789 1.3 1010517
04:00+25ю358695 1.9 1009274
07:00+25ююв6982100 0.3 1010592
10:00+25ююв6107698 0.3 1011670
13:00+26юв9107214 0.0 1009737
16:00+26юв9107587 0.1 1008669
19:00+25ююв8117991 0.0 1010590
22:00+24ююв71180100 0.0 1011593